Kinston, NC

1:39 AM EST on January 20, 2017 (GMT -0500)
Kinston Regional Jetport / Stallings Field

Weather History for KISO - September, 2012

Change the Weather History Date:

Wednesday, September 19, 2012

  Actual Average Record
Temperature  
Mean Temperature 66 °F -  
Max Temperature 71 °F 80 °F 97 °F (1978)
Min Temperature 62 °F 62 °F 33 °F (2007)
Cooling Degree Days 2    
Growing Degree Days 16 (Base 50)    
Moisture  
Dew Point 63 °F    
Average Humidity 88    
Maximum Humidity 100    
Minimum Humidity 56    
Precipitation  
Precipitation 0.00 in - - ()
Sea Level Pressure  
Sea Level Pressure 29.99 in    
Wind  
Wind Speed 5 mph (North)    
Max Wind Speed 21 mph    
Max Gust Speed 21 mph    
Visibility 8 miles    
Events Rain    
Averages and records for this station are not official NWS values.
T = Trace of Precipitation, MM = Missing Value Source: NWS Daily Summary

Daily Weather History Graph

Daily Weather History Graph

Search for Another Location

Airport or City:

Trip Planner

Search our weather history database for the weather conditions in past years. The results will help you decide how hot, cold, wet, or windy it might be!

Date:

Astronomy

Sep. 19, 2012 Rise Set
Actual Time 6:56 AM EDT 7:10 PM EDT
Civil Twilight 6:31 AM EDT 7:36 PM EDT
Nautical Twilight 6:01 AM EDT 8:06 PM EDT
Astronomical Twilight 5:31 AM EDT 8:36 PM EDT
Moon 10:53 AM EDT (9/19) 9:30 PM EDT (9/19)
Length of Visible Light 13h 05m
Length of Day
12h 14m
Waxing Crescent, 17% of the Moon is Illuminated
Sep 19
Waxing Crescent
Sep 22
First Quarter
Sep 29
Full
Oct 8
Last Quarter
Oct 15
New

Hourly Weather History & Observations

Time (EDT) Temp. Dew Point Humidity Pressure Visibility Wind Dir Wind Speed Gust Speed Precip Events Conditions
12:35 AM 69.8 °F 68.0 °F 94% 29.84 in 10.0 mi SSW 4.6 mph - N/A   Scattered Clouds
12:55 AM 69.8 °F 68.0 °F 94% 29.85 in 10.0 mi SSW 5.8 mph - N/A   Clear
1:15 AM 69.8 °F 68.0 °F 94% 29.86 in 10.0 mi SSW 4.6 mph - N/A   Scattered Clouds
1:55 AM 69.8 °F 68.0 °F 94% 29.86 in 10.0 mi SSW 4.6 mph - N/A   Scattered Clouds
2:15 AM 69.8 °F 68.0 °F 94% 29.86 in 10.0 mi SSW 3.5 mph - N/A   Clear
2:35 AM 69.8 °F 68.0 °F 94% 29.86 in 10.0 mi South 3.5 mph - N/A   Clear
2:55 AM 69.8 °F 68.0 °F 94% 29.86 in 7.0 mi Calm Calm - N/A   Scattered Clouds
3:15 AM 69.8 °F 68.0 °F 94% 29.85 in 7.0 mi Calm Calm - N/A   Mostly Cloudy
3:35 AM 69.8 °F 69.8 °F 100% 29.85 in 7.0 mi Calm Calm - N/A   Overcast
3:55 AM 69.8 °F 69.8 °F 100% 29.85 in 5.0 mi Calm Calm - N/A   Overcast
4:15 AM 69.8 °F 69.8 °F 100% 29.86 in 5.0 mi WSW 3.5 mph - N/A   Overcast
4:35 AM 69.8 °F 69.8 °F 100% 29.86 in 5.0 mi WSW 3.5 mph - N/A   Overcast
4:55 AM 69.8 °F 69.8 °F 100% 29.87 in 7.0 mi Calm Calm - N/A   Mostly Cloudy
5:15 AM 68.0 °F 68.0 °F 100% 29.89 in 10.0 mi NW 5.8 mph - N/A   Overcast
5:55 AM 68.0 °F 66.2 °F 94% 29.91 in 10.0 mi NNW 4.6 mph - N/A   Overcast
6:15 AM 68.0 °F 64.4 °F 88% 29.92 in 10.0 mi NNW 8.1 mph - N/A   Scattered Clouds
6:35 AM 66.2 °F 64.4 °F 94% 29.92 in 10.0 mi NNW 5.8 mph - N/A   Clear
6:55 AM 66.2 °F 64.4 °F 94% 29.93 in 10.0 mi North 6.9 mph - N/A   Scattered Clouds
6:56 AM 68.0 °F 66.2 °F 94% 29.93 in 10.0 mi North 6.9 mph - N/A   Scattered Clouds
7:56 AM 68.0 °F 66.2 °F 94% 29.96 in 10.0 mi North 20.7 mph - N/A   Overcast
9:56 AM 69.8 °F 57.2 °F 64% 30.02 in 10.0 mi NNE 12.7 mph 19.6 mph N/A   Scattered Clouds
10:56 AM 69.8 °F 53.6 °F 56% 30.04 in 10.0 mi NNE 11.5 mph 20.7 mph N/A   Scattered Clouds
11:56 AM 69.8 °F 53.6 °F 56% 30.05 in 10.0 mi NNE 11.5 mph - N/A   Mostly Cloudy
12:56 PM 71.6 °F 55.4 °F 57% 30.05 in 10.0 mi NNE 12.7 mph 18.4 mph N/A   Overcast
1:59 PM 69.8 °F 55.4 °F 60% 30.07 in 10.0 mi NNE 11.5 mph - N/A   Overcast
2:56 PM 68.0 °F 57.2 °F 68% 30.06 in 7.0 mi North 10.4 mph - N/A   Overcast
4:56 PM 64.4 °F 60.8 °F 88% 30.09 in 7.0 mi NNW 8.1 mph - N/A   Overcast
5:56 PM 62.6 °F 60.8 °F 94% 30.09 in 5.0 mi North 6.9 mph - N/A Rain Light Rain
6:56 PM 64.4 °F 60.8 °F 88% 30.09 in 10.0 mi North 5.8 mph - N/A   Overcast
7:56 PM 64.4 °F 60.8 °F 88% 30.10 in 10.0 mi NNE 5.8 mph - N/A   Overcast
8:56 PM 64.4 °F 60.8 °F 88% 30.11 in 7.0 mi North 4.6 mph - N/A   Overcast
9:15 PM 64.4 °F 60.8 °F 88% 30.12 in 4.0 mi North 4.6 mph - N/A   Overcast
9:35 PM 64.4 °F 60.8 °F 88% 30.12 in 5.0 mi North 5.8 mph - N/A   Overcast
9:55 PM 62.6 °F 60.8 °F 94% 30.12 in 4.0 mi North 4.6 mph - N/A   Overcast
10:15 PM 62.6 °F 60.8 °F 94% 30.12 in 5.0 mi North 5.8 mph - N/A   Overcast
10:35 PM 62.6 °F 59.0 °F 88% 30.12 in 5.0 mi North 5.8 mph - N/A   Overcast
10:55 PM 62.6 °F 59.0 °F 88% 30.13 in 4.0 mi North 6.9 mph - N/A   Overcast
11:15 PM 62.6 °F 59.0 °F 88% 30.12 in 4.0 mi North 6.9 mph - N/A   Overcast
11:35 PM 62.6 °F 59.0 °F 88% 30.13 in 4.0 mi North 6.9 mph - N/A   Haze
11:55 PM 62.6 °F 59.0 °F 88% 30.13 in 4.0 mi North 6.9 mph - N/A   Haze